Regional Weather Roundup
Issued by NWS Mt. Holly, NJ

Home | Current Version | Previous Version | Text Only | Print | Product List | Glossary On
Versions: 1 2 3 4 5 6 7 8 9 10 11 12 13 14 15 16 17 18 19 20 21 22 23 24 25 26 27 28 29 30 31 32 33 34 35 36 37 38 39 40 41 42 43 44 45 46 47 48 49 50
000
ASUS41 KPHI 311812
RWRPHI

REGIONAL WEATHER ROUNDUP
NATIONAL WEATHER SERVICE MOUNT HOLLY NJ
200 PM EDT FRI JUL 31 2015

NOTE:  "FAIR" INDICATES FEW OR NO CLOUDS BELOW 12,000 FEET WITH NO
SIGNIFICANT WEATHER AND/OR OBSTRUCTIONS TO VISIBILITY.

 * = STATION DOES NOT REPORT PRECIPITATION (E.G. RAIN, SNOW, ETC.)
        OR FOG.

NJZ015>026-311900-
SOUTHERN NEW JERSEY

CITY           SKY/WX    TMP DP  RH WIND       PRES   REMARKS
POMONA         MOSUNNY   88  60  38 NW9       29.88F
6HR MIN TEMP:  75; 6HR MAX TEMP:  88;

RIO GRANDE*    SUNNY     86  63  45 W12       29.90S
MILLVILLE      MOSUNNY   89  56  32 N9        29.89F
WRIGHTSTOWN    MOSUNNY   88  59  38 W12       29.85F
MOUNT HOLLY    MOSUNNY   86  57  37 NW6       29.87F
TRENTON        MOSUNNY   88  55  32 NW10      29.87S
6HR MIN TEMP:  72; 6HR MAX TEMP:  88; 6HR PCP: TRACE;


$$
NJZ001>014-311900-
NORTHERN NEW JERSEY

CITY           SKY/WX    TMP DP  RH WIND       PRES   REMARKS
SUSSEX         SUNNY     84  54  35 W10       29.88S
ANDOVER*         N/A     84  54  35 N8        29.88F
MORRISTOWN     PTSUNNY   90  57  33 NW7G16    29.86F
NEWARK         MOSUNNY   91  55  29 NW12      29.84F
TETERBORO      MOSUNNY   88  55  32 NW14      29.83F
CALDWELL       MOSUNNY   87  57  35 W9G17     29.86F
SOMERVILLE     MOSUNNY   87  58  37 VRB7G17   29.85F
ALLAIRE*       SUNNY     88  57  35 W5        29.86F
TOMS RIVER*      N/A     88  55  33 CALM      29.87F

$$
PAZ043-044-047-054-055-060>062-066>071-311900-
EASTERN PENNSYLVANIA

CITY           SKY/WX    TMP DP  RH WIND       PRES   REMARKS
PHILADELPHIA   MOSUNNY   88  54  31 NW8G17    29.88F
6HR MIN TEMP:  77; 6HR MAX TEMP:  89;

NORTH PHILA    SUNNY     90  53  28 W9        29.89S
BLUE BELL      SUNNY     86  61  42 W8        29.88S
DOYLESTOWN     MOSUNNY   84  53  34 VRB6      29.88F
QUAKERTOWN*    MOSUNNY   84  61  45 NW7       29.91S
POTTSTOWN      MOSUNNY   85  59  41 VRB7      29.91S
LANCASTER      MOSUNNY   85  55  35 VRB6      29.91S
COATESVILLE    SUNNY     82  61  47 NW6       29.93S
READING        MOSUNNY   86  57  37 W10       29.89S
6HR MIN TEMP:  71; 6HR MAX TEMP:  87;

ALLENTOWN      MOSUNNY   86  60  41 W8        29.88F
6HR MIN TEMP:  70; 6HR MAX TEMP:  86;

MOUNT POCONO   SUNNY     79  51  37 N10G18    29.94F
6HR MIN TEMP:  65; 6HR MAX TEMP:  80;

HAZLETON       MOSUNNY   79  55  44 W5        29.97S
WILKES BARRE   SUNNY     84  52  33 W6        29.90F

$$
DEZALL-MDZ008-012-015-019-020-311900-
DELAWARE AND EASTERN MARYLAND

CITY           SKY/WX    TMP DP  RH WIND       PRES   REMARKS
WILMINGTON     SUNNY     88  59  37 W7        29.90F
6HR MIN TEMP:  73; 6HR MAX TEMP:  89;

DOVER          MOSUNNY   87  63  45 VRB2      29.89S
GEORGETOWN     SUNNY     87  56  34 N9        29.91F
6HR MIN TEMP:  75; 6HR MAX TEMP:  89;

EASTON         MOSUNNY   88  61  40 NW7       29.95F
PATUXENT       MOSUNNY   86  61  42 NE8       29.92F
OCEAN CITY     SUNNY     86  55  34 E7        29.90F
WALLOPS ISLAND SUNNY     88  61  40 N10       29.91F
CAMBRIDGE      SUNNY     86  55  35 W5        29.92S
SALISBURY      SUNNY     86  58  38 VRB6      29.90F

$$
PAZ001-021-NYZ056-072-MDZ011-DCZ001-311900-
OTHER NEARBY LOCATIONS

CITY           SKY/WX    TMP DP  RH WIND       PRES   REMARKS
HARRISBURG     MOSUNNY   87  61  41 NW10      29.90S
STATE COLLEGE  MOSUNNY   82  59  44 W10       29.94F
WILLIAMSPORT   MOSUNNY   85  56  37 SW10      29.88F
BINGHAMTON     MOSUNNY   77  55  46 W12       29.92F
NEW YORK CITY  SUNNY     88  55  32 VRB6      29.87F
BALTIMORE      MOSUNNY   89  57  33 N8G16     29.91S
WASHINGTON DC  MOSUNNY   91  60  35 VRB6G20   29.93S HX  90

$$


USA.gov is the U.S. government's official web portal to all federal, state and local government web resources and services.